This is the latest recevied weather packets stored in our database for station/object DL6JOE-10. If no packets are shown the sender has not sent any weather packets the latest 10 day(s).
| Time | Temp. | Humidity | Pressure | Rain* | Wind** | Luminosity | Snow |
|---|---|---|---|---|---|---|---|
| 1777701972 | 12.22° C | 41% | 969.3 hPa | - | - | - | - |
| 1777701072 | 11.67° C | 38% | 969.3 hPa | - | - | - | - |
| 1777700172 | 11.11° C | 39% | 969.4 hPa | - | - | - | - |
| 1777699272 | 11.11° C | 39% | 969.3 hPa | - | - | - | - |
| 1777698372 | 10.56° C | 39% | 969.3 hPa | - | - | - | - |
| 1777697472 | 10.56° C | 40% | 969.3 hPa | - | - | - | - |
| 1777696571 | 10.56° C | 39% | 969.1 hPa | - | - | - | - |
| 1777695671 | 11.11° C | 39% | 969.2 hPa | - | - | - | - |
| 1777694771 | 11.11° C | 39% | 969.2 hPa | - | - | - | - |
| 1777693871 | 11.11° C | 39% | 969.1 hPa | - | - | - | - |
| 1777692971 | 11.67° C | 38% | 969 hPa | - | - | - | - |
| 1777692071 | 11.11° C | 39% | 969.1 hPa | - | - | - | - |
| 1777691171 | 11.67° C | 38% | 969.2 hPa | - | - | - | - |
| 1777690271 | 12.22° C | 37% | 969.3 hPa | - | - | - | - |
| 1777689371 | 12.22° C | 37% | 969.3 hPa | - | - | - | - |
| 1777688471 | 12.78° C | 37% | 969.4 hPa | - | - | - | - |
| 1777687571 | 12.78° C | 37% | 969.3 hPa | - | - | - | - |
| 1777686671 | 12.78° C | 36% | 969.4 hPa | - | - | - | - |
| 1777685770 | 13.33° C | 35% | 969.4 hPa | - | - | - | - |
| 1777684870 | 13.33° C | 36% | 969.4 hPa | - | - | - | - |
| 1777683970 | 13.33° C | 35% | 969.6 hPa | - | - | - | - |
| 1777683070 | 13.89° C | 35% | 969.6 hPa | - | - | - | - |
| 1777682170 | 13.89° C | 35% | 969.7 hPa | - | - | - | - |
| 1777681270 | 14.44° C | 34% | 969.8 hPa | - | - | - | - |
| 1777680370 | 14.44° C | 34% | 970 hPa | - | - | - | - |
* Rain since midnight (hover to see other rain measurements)
** Current wind speed in m/s (hover to see current wind gust speed)